| time (UTC) | temp F | wind direction | speed knots | gust knots | rain 1hr in | rain 24hr in | rain mn in | humidity % | barometer mb |
| 20260508184759 | 67 | 223 | 1.7 | 6.1 | 0.00 | 0.00 | 0.00 | 49 | 1010.3 |
| 20260508182616 | 67 | 203 | 0.9 | 6.1 | 0.00 | 0.00 | 0.00 | 48 | 1010.4 |
| 20260508181548 | 67 | 202 | 0.9 | 6.1 | 0.00 | 0.00 | 0.00 | 48 | 1010.8 |
| 20260508175419 | 65 | 269 | 0.9 | 4.3 | 0.00 | 0.00 | 0.00 | 51 | 1011.3 |
| 20260508174357 | 65 | 286 | 0.9 | 4.3 | 0.00 | 0.00 | 0.00 | 54 | 1011.5 |
| 20260508173421 | 64 | 229 | 0.0 | 3.5 | 0.00 | 0.00 | 0.00 | 54 | 1011.7 |
| 20260508172427 | 63 | 193 | 0.0 | 1.7 | 0.00 | 0.00 | 0.00 | 54 | 1012.0 |
| 20260508171359 | 62 | 270 | 0.0 | 1.7 | 0.00 | 0.00 | 0.00 | 56 | 1012.3 |
| 20260508170418 | 61 | 275 | 0.0 | 0.0 | 0.00 | 0.00 | 0.00 | 58 | 1012.5 |
| 20260508165352 | 62 | 275 | 0.0 | 0.9 | 0.00 | 0.00 | 0.00 | 56 | 1012.6 |
| 20260508164322 | 62 | 282 | 0.0 | 4.3 | 0.00 | 0.00 | 0.00 | 54 | 1012.6 |
| 20260508162157 | 60 | 248 | 0.0 | 3.5 | 0.00 | 0.00 | 0.00 | 57 | 1012.8 |
| 20260508161207 | 60 | 297 | 0.9 | 6.1 | 0.00 | 0.00 | 0.00 | 57 | 1013.0 |
| 20260508160222 | 60 | 277 | 1.7 | 6.1 | 0.00 | 0.00 | 0.00 | 56 | 1013.1 |
| 20260508155154 | 59 | 269 | 1.7 | 5.2 | 0.00 | 0.00 | 0.00 | 57 | 1013.2 |
| 20260508154143 | 58 | 202 | 0.9 | 5.2 | 0.00 | 0.00 | 0.00 | 59 | 1013.3 |
| 20260508153151 | 57 | 190 | 0.0 | 2.6 | 0.00 | 0.00 | 0.00 | 60 | 1013.2 |
| 20260508152200 | 56 | 201 | 0.0 | 0.0 | 0.00 | 0.00 | 0.00 | 63 | 1013.2 |
| 20260508151203 | 55 | 219 | 0.0 | 0.0 | 0.00 | 0.00 | 0.00 | 65 | 1013.4 |
| 20260508150157 | 55 | 198 | 0.0 | 3.5 | 0.00 | 0.00 | 0.00 | 64 | 1013.4 |
| 20260508145203 | 54 | 215 | 0.0 | 2.6 | 0.00 | 0.00 | 0.00 | 66 | 1013.6 |
| 20260508144149 | 54 | 272 | 0.0 | 1.7 | 0.00 | 0.00 | 0.00 | 66 | 1013.6 |
| 20260508143135 | 53 | 198 | 0.0 | 0.0 | 0.00 | 0.00 | 0.00 | 66 | 1013.6 |
| 20260508142111 | 53 | 200 | 0.0 | 0.0 | 0.00 | 0.00 | 0.00 | 67 | 1013.7 |
| 20260508141048 | 53 | 216 | 0.0 | 1.7 | 0.00 | 0.00 | 0.00 | 66 | 1013.7 |
| 20260508140107 | 53 | 216 | 0.0 | 0.9 | 0.00 | 0.00 | 0.00 | 68 | 1013.5 |
| 20260508135110 | 53 | 215 | 0.0 | 2.6 | 0.00 | 0.00 | 0.00 | 66 | 1013.7 |
| 20260508132924 | 52 | 198 | 0.0 | 0.0 | 0.00 | 0.00 | 0.00 | 69 | 1013.6 |
| 20260508131900 | 52 | 198 | 0.0 | 3.5 | 0.00 | 0.00 | 0.00 | 69 | 1013.5 |
| 20260508130911 | 52 | 198 | 0.0 | 3.5 | 0.00 | 0.00 | 0.00 | 68 | 1013.7 |
| 20260508125844 | 51 | 194 | 0.0 | 2.6 | 0.00 | 0.00 | 0.00 | 69 | 1013.6 |
| 20260508124811 | 51 | 193 | 0.0 | 2.6 | 0.00 | 0.00 | 0.00 | 71 | 1013.5 |
| 20260508123813 | 50 | 246 | 0.0 | 1.7 | 0.00 | 0.00 | 0.00 | 72 | 1013.5 |
| 20260508122814 | 50 | 247 | 0.0 | 1.7 | 0.00 | 0.00 | 0.00 | 72 | 1013.4 |
| 20260508121815 | 49 | 248 | 0.0 | 0.9 | 0.00 | 0.00 | 0.00 | 74 | 1013.4 |
| 20260508120741 | 49 | 248 | 0.0 | 0.9 | 0.00 | 0.00 | 0.00 | 74 | 1013.4 |
| 20260508115746 | 48 | 250 | 0.0 | 1.7 | 0.00 | 0.00 | 0.00 | 74 | 1013.4 |
| 20260508114742 | 48 | 254 | 0.0 | 1.7 | 0.00 | 0.00 | 0.00 | 76 | 1013.4 |
| 20260508113757 | 47 | 254 | 0.0 | 0.9 | 0.00 | 0.00 | 0.00 | 77 | 1013.3 |
| 20260508110506 | 43 | 260 | 0.0 | 0.0 | 0.00 | 0.00 | 0.00 | 86 | 1013.2 |
| 20260508105459 | 42 | 260 | 0.0 | 0.0 | 0.00 | 0.00 | 0.00 | 88 | 1013.1 |
| 20260508104457 | 42 | 261 | 0.0 | 0.0 | 0.00 | 0.00 | 0.00 | 89 | 1013.1 |
| 20260508103456 | 42 | 261 | 0.0 | 0.0 | 0.00 | 0.00 | 0.00 | 89 | 1013.0 |
| 20260508102429 | 42 | 261 | 0.0 | 0.0 | 0.00 | 0.00 | 0.00 | 89 | 1013.0 |
| 20260508101411 | 42 | 261 | 0.0 | 0.0 | 0.00 | 0.00 | 0.00 | 88 | 1012.9 |
| 20260508100426 | 42 | 261 | 0.0 | 0.0 | 0.00 | 0.00 | 0.00 | 88 | 1012.8 |
| 20260508095411 | 42 | 261 | 0.0 | 0.0 | 0.00 | 0.00 | 0.00 | 88 | 1012.8 |
| 20260508094348 | 42 | 261 | 0.0 | 0.0 | 0.00 | 0.00 | 0.00 | 88 | 1012.8 |
| 20260508092235 | 43 | 261 | 0.0 | 0.0 | 0.00 | 0.00 | 0.00 | 89 | 1012.9 |
| 20260508091211 | 43 | 261 | 0.0 | 0.0 | 0.00 | 0.00 | 0.00 | 89 | 1012.9 |
| 20260508090225 | 43 | 261 | 0.0 | 0.0 | 0.00 | 0.00 | 0.00 | 89 | 1013.0 |
| 20260508085234 | 43 | 261 | 0.0 | 0.0 | 0.00 | 0.00 | 0.00 | 88 | 1013.1 |
| 20260508081942 | 44 | 261 | 0.0 | 0.0 | 0.00 | 0.00 | 0.00 | 86 | 1013.1 |
| 20260508080958 | 45 | 261 | 0.0 | 0.0 | 0.00 | 0.00 | 0.00 | 85 | 1013.0 |
| 20260508075948 | 45 | 261 | 0.0 | 0.0 | 0.00 | 0.00 | 0.00 | 85 | 1013.0 |
| 20260508074917 | 45 | 261 | 0.0 | 0.0 | 0.00 | 0.00 | 0.00 | 84 | 1013.1 |
| 20260508073916 | 46 | 261 | 0.0 | 0.0 | 0.00 | 0.00 | 0.00 | 85 | 1013.1 |
| 20260508072918 | 46 | 261 | 0.0 | 0.0 | 0.00 | 0.00 | 0.00 | 85 | 1013.1 |
| 20260508071903 | 47 | 261 | 0.0 | 0.0 | 0.00 | 0.00 | 0.00 | 84 | 1013.2 |
| 20260508070905 | 47 | 261 | 0.0 | 0.0 | 0.00 | 0.00 | 0.00 | 84 | 1013.3 |
| 20260508065926 | 47 | 261 | 0.0 | 0.0 | 0.00 | 0.00 | 0.00 | 83 | 1013.5 |
| 20260508064943 | 48 | 261 | 0.0 | 0.0 | 0.00 | 0.00 | 0.00 | 82 | 1013.5 |
| 20260508061701 | 49 | 261 | 0.0 | 0.0 | 0.00 | 0.00 | 0.00 | 79 | 1014.0 |
| 20260508060718 | 48 | 261 | 0.0 | 0.0 | 0.00 | 0.00 | 0.00 | 78 | 1013.9 |
| 20260508055657 | 48 | 261 | 0.0 | 0.0 | 0.00 | 0.00 | 0.00 | 79 | 1014.0 |
| 20260508044924 | 47 | 260 | 0.0 | 0.0 | 0.00 | 0.00 | 0.00 | 82 | 1013.5 |